Location: Basin Creek
(36.9069°N, 119.1076°W)
Time: 10:21:54
(UTC+00:00)

Daily predictions for brighter satellites

Satellite Brightness Start Highest point End
(mag) Time Altitude Azimuth Time Altitude Azimuth Time Altitude Azimuth
STARLINK-1025 3.5 12:04:32 63° WSW 12:05:07 78° NW 12:09:16 10° NE
deb Chang Zheng 4 4.5 12:01:20 10° N 12:04:35 32° NW 12:04:35 32° NW
Cosmos 2219 Rocket 2.1 12:00:46 10° NNW 12:06:18 61° WSW 12:11:45 10° S
COSMOS 2441 4.3 12:03:44 10° N 12:08:27 60° WNW 12:10:09 37° SW
Meteor 1-31 Rocket 4.4 12:06:18 10° NNE 12:09:57 35° E 12:13:34 10° SSE
STARLINK-1017 3.6 12:09:20 54° WSW 12:10:06 71° NW 12:14:15 10° NE
Lacrosse 5 rocket 2.7 12:10:59 22° NW 12:11:01 22° NW 12:14:06 10° NNE
Cosmos 2242 Rocket 4.4 12:12:34 33° WNW 12:12:34 33° WNW 12:16:29 10° NNW
Cosmos 158 Rocket 4.4 12:10:17 10° NW 12:15:04 37° W 12:16:58 27° SW
Cosmos 1980 4.3 12:09:51 10° NNW 12:15:27 58° ENE 12:21:00 10° SE
STARLINK-81 3.7 12:18:03 43° W 12:19:06 59° NW 12:23:05 10° NE
ASTRO E2 3.6 12:18:30 30° SSW 12:19:22 33° S 12:22:58 10° ESE
STARLINK-54 3.8 12:19:55 39° W 12:20:59 51° NW 12:24:55 10° NE
BREEZE M DEB (TANK) 3.0 12:22:20 30° NNW 12:22:22 30° NNW 12:25:06 10° NE
STARLINK-77 3.8 12:21:16 38° W 12:22:27 55° NW 12:26:24 10° NE
STARLINK-25 3.8 12:22:51 37° W 12:24:06 53° NW 12:28:03 10° NE
CENTAUR R/B 3.9 12:19:13 10° S 12:24:14 34° ESE 12:29:58 10° NE
STARLINK-1048 3.9 12:23:40 35° W 12:25:04 52° NW 12:29:07 10° NE
STARLINK-71 4.0 12:24:42 33° W 12:25:59 46° NW 12:29:51 10° NE
STARLINK-1023 4.1 12:25:07 32° W 12:26:35 46° NW 12:30:38 10° NE
STARLINK-79 3.9 12:26:01 33° W 12:27:23 49° NW 12:31:19 10° NE
Cosmos 2082 4.5 12:22:46 10° S 12:28:14 52° ESE 12:33:47 10° NNE
Cosmos 2333 Rocket 2.7 12:23:16 10° NW 12:28:22 36° WSW 12:33:27 10° S
STARLINK-78 4.0 12:27:39 32° W 12:29:06 47° NW 12:33:00 10° NE
CZ-4B R/B 4.2 12:25:19 10° NNE 12:29:23 64° E 12:33:13 10° S
Okean 1 3.9 12:28:34 31° WSW 12:29:25 35° W 12:33:05 10° NNW
STARLINK-1049 4.0 12:28:26 30° W 12:30:03 47° NW 12:34:03 10° NE
SeaSat 1 2.5 12:25:54 10° S 12:30:41 52° WSW 12:35:31 10° NW
STARLINK-57 4.1 12:29:22 30° W 12:30:52 44° NW 12:34:44 10° NE
Nadezhda 4 Rocket 4.4 12:25:26 10° S 12:31:38 68° E 12:37:56 10° NNE
Spot 2 4.5 12:27:10 10° NNE 12:32:17 89° ESE 12:37:26 10° SSW
STARLINK-49 4.1 12:30:48 29° W 12:32:23 44° NW 12:36:16 10° NE
STARLINK-27 4.1 12:32:23 28° W 12:34:02 43° NW 12:37:53 10° NE
Cosmos 1975 2.7 12:30:27 10° N 12:34:27 81° W 12:38:27 10° S
Cosmos 2279 Rocket 3.9 12:28:46 10° NNW 12:34:57 68° W 12:41:07 10° S
STARLINK-1051 4.2 12:33:13 27° W 12:35:02 43° NW 12:39:00 10° NE
Cosmos 1515 3.6 12:32:31 15° SSW 12:35:34 58° W 12:39:18 10° N
STARLINK-74 4.1 12:33:57 26° W 12:35:41 42° NW 12:39:32 10° NE
BREEZE-M DEB (TANK) 2.7 12:32:15 10° NW 12:36:42 88° SW 12:41:04 10° SE
Cosmos 1743 3.3 12:33:19 10° NNW 12:36:53 36° W 12:40:27 10° SSW
STARLINK-39 4.2 12:35:34 25° W 12:37:22 40° NW 12:41:11 10° NE
STARLINK-31 4.3 12:37:11 24° W 12:39:03 39° NW 12:42:51 10° NE
Cosmos 1544 3.1 12:35:35 10° N 12:39:12 81° E 12:42:50 10° S
SL-4 R/B 2.4 12:35:27 10° NW 12:39:31 68° NE 12:43:53 10° ESE
STARLINK-69 4.4 12:39:00 22° W 12:40:55 35° NW 12:44:39 10° NNE
STARLINK-21 4.4 12:40:24 22° W 12:42:24 36° NW 12:46:10 10° NNE
NOSS 0 Rocket 3.9 12:38:44 10° NNW 12:44:46 59° WSW 12:50:45 10° S
STARLINK-1028 4.4 12:42:48 21° W 12:45:02 36° NW 12:48:54 10° NNE
GPS 2-04 Rocket1 2.6 12:43:10 22° W 12:45:24 60° S 12:49:00 10° ESE
Cosmos 2180 Rocket 4.4 12:39:49 10° NNW 12:45:58 71° W 12:52:09 10° S
STARLINK-1034 4.5 12:43:20 10° SSW 12:47:18 47° SE 12:51:17 10° ENE
Meteor 2-4 Rocket 3.8 12:42:27 10° S 12:48:21 82° W 12:54:19 10° N
H-2A R/B 2.5 12:44:53 10° NNE 12:49:06 82° ESE 12:53:07 10° S
IDEFIX/ARIANE 42P 4.2 12:49:27 10° NNW 12:52:09 14° WNW 12:53:43 13° W
STARLINK-1068 4.3 12:48:16 10° SSW 12:52:17 53° SE 12:56:19 10° NE
CZ-4B R/B 2.9 12:52:38 10° N 12:56:49 77° WNW 13:01:09 10° SSW
FENGYUN 3A 4.0 12:51:39 10° NNE 12:57:03 69° E 13:02:23 10° S
Cosmos 1782 Rocket 4.3 12:54:58 10° NNW 12:58:44 29° W 13:02:29 10° SSW
CZ-2C R/B 3.1 12:54:47 10° N 12:58:46 29° WNW 13:02:42 10° SW
Cosmos 2237 Rocket 2.2 12:53:35 10° NNW 12:59:11 63° WSW 13:04:47 10° S
STARLINK-1031 3.8 12:55:43 10° SW 12:59:51 72° SE 13:04:01 10° NE
ALOS 2.4 12:56:59 10° NNE 13:01:40 79° E 13:06:20 10° S
Cosmos 1484 Rocket 2.7 12:58:06 10° N 13:01:57 67° WNW 13:05:42 10° SSW
STARLINK-1060 3.9 12:58:06 10° SW 13:02:12 66° SE 13:06:18 10° NE
Cosmos 2221 Rocket 4.0 13:01:39 10° SSW 13:05:53 42° W 13:10:09 10° N
ATLAS CENTAUR R/B 1.7 13:05:07 15° W 13:06:06 21° NW 13:07:47 10° NNE
STARLINK-1030 3.8 13:03:02 10° SW 13:07:09 74° SE 13:11:18 10° NE
Cosmos 2219 4.3 13:06:25 10° WSW 13:11:09 26° WNW 13:15:54 10° N
Cosmos 1356 3.9 13:07:49 10° N 13:11:13 65° E 13:14:36 10° SSE
ATLAS 3B R/B 3.7 13:05:18 10° S 13:11:40 47° ESE 13:17:58 10° NE
USA 238 DEB 3.9 13:05:33 10° SW 13:11:58 51° NW 13:18:38 10° NNE
USA 238 3.9 13:05:40 10° SW 13:12:05 52° NW 13:18:46 10° NNE
STARLINK-1020 3.7 13:08:01 10° SW 13:12:09 82° SE 13:16:18 10° NE
GENESIS II 4.3 13:10:06 10° SW 13:14:07 76° WNW 13:18:13 10° NNE
COSMO-SKYMED 1 2.7 13:11:07 10° SSE 13:15:27 83° ENE 13:19:48 10° N
STARLINK-1052 3.6 13:13:00 10° SW 13:17:08 89° NW 13:21:17 10° NE
Cosmos 2297 Rocket 3.1 13:12:24 10° WSW 13:17:21 30° WNW 13:22:20 10° N
Cosmos 389 Rocket 3.5 13:15:53 10° SW 13:19:01 28° WNW 13:22:09 10° NNW
METEOR-M 4.1 13:14:57 10° N 13:20:18 76° WNW 13:25:37 10° SSW
